Theta_e
317 317 317 317 318 317 319 320 319 322 322 320 322 320 319 318 319 320 320 318 319 319
318 316 316 317 318 318 319 323 321 321 323 323 322 320 319 319 318 318 319 317 321 318
319 319 317 317 318 319 320 320 320 320 321 323 322 320 319 318 319 320 318 316 319 318
319 320 320 319 319 320 320 321 321 321 321 320 319 320 320 323 323 322 321 317 318 318
320 319 318 319 319 321 321 322 321 321 321 321 321 320 322 322 322 320 319 319 320 319
319 319 318 318 320 322 322 321 322 322 321 322 323 321 321 322 320 318 320 320 319 319
319 319 319 319 318 321 323 322 323 324 324 325 326 322 321 321 320 320 320 321 320 319
319 319 321 320 320 321 323 325 326 325 326 326 326 325 322 321 321 320 320 322 323 321
318 320 320 321 320 317 318 323 326 325 325 325 325 307 311 319 323 323 321 321 322 322
318 319 320 321 319 316 316 315 317 321 323 322 319 305 307 312 323 323 323 322 322 323
317 319 318 319 315 314 312 311 312 315 317 319 314 304 303 309 323 323 323 323 323 322
316 318 317 316 313 311 311 310 310 312 313 315 313 301 302 316 323 323 323 323 323 323
315 318 317 316 313 312 310 311 312 310 310 307 311 299 301 314 321 320 321 321 320 311
314 316 316 316 315 313 312 310 309 310 309 307 307 306 299 305 319 319 320 319 317 315
Wind_Speed
3 1 0 2 1 1 1 2 1 3 5 6 6 5 5 4 3 4 4 5 4 3
2 1 2 3 2 1 1 2 3 2 5 5 6 6 6 4 5 4 3 4 5 3
2 2 2 2 3 3 3 3 4 4 5 5 5 6 7 4 5 6 3 3 6 4
1 2 2 2 2 3 3 4 4 4 6 6 6 6 8 8 8 7 6 5 6 6
3 4 3 3 2 3 5 4 3 5 5 7 7 6 9 8 8 9 8 9 7 6
4 4 3 3 2 3 4 5 5 5 6 6 7 8 7 9 8 6 8 6 8 7
4 4 4 3 3 3 3 5 6 6 6 7 7 9 8 8 8 7 6 6 7 6
5 4 5 3 3 3 5 3 4 6 8 8 7 7 9 10 9 8 7 6 8 6
5 5 5 4 2 4 3 5 4 5 9 7 5 11 12 8 8 8 8 9 9 9
6 5 5 5 5 5 4 4 5 5 7 7 7 13 13 11 6 8 7 9 9 7
6 6 6 6 6 5 3 4 5 4 5 6 5 11 11 11 7 7 7 8 8 7
7 7 6 6 7 4 4 3 3 4 4 6 5 7 11 9 8 7 7 7 7 7
7 8 8 7 7 4 3 5 5 5 4 5 7 7 6 7 6 9 6 5 5 7
8 8 8 7 5 6 5 5 5 5 4 4 5 6 9 10 6 6 7 6 4 3
Wind_Direction
154 221 7 349 4 357 336 322 331 133 140 149 143 141 135 127 135 148 138 139 98 92
154 162 49 29 36 360 1 11 45 135 144 143 137 134 127 130 129 118 121 116 103 96
171 167 99 86 69 58 21 46 60 85 121 130 122 123 117 107 107 102 85 100 106 92
127 86 84 89 92 54 41 55 74 93 109 107 107 108 105 130 134 129 109 100 107 107
108 108 104 76 82 64 61 62 88 102 100 106 107 106 125 135 144 143 139 139 116 117
130 130 123 101 93 69 84 71 69 72 88 95 111 109 110 128 124 111 122 125 131 131
163 145 135 125 106 102 96 93 97 91 91 112 113 111 107 106 101 98 94 102 112 116
161 138 131 135 129 111 96 79 90 106 103 107 108 114 111 117 119 113 106 99 100 97
153 145 139 138 131 92 99 104 99 73 92 96 101 114 107 111 115 117 124 105 104 108
155 157 153 143 121 104 110 95 91 87 98 111 133 131 126 119 116 115 116 118 119 107
159 153 136 146 137 118 112 111 108 110 101 103 100 132 133 126 114 112 125 126 123 124
162 142 134 143 144 131 128 110 111 126 125 119 106 120 131 135 137 127 125 126 137 147
162 148 148 149 157 145 145 134 121 114 121 131 135 153 136 118 126 133 137 119 132 146
163 160 154 149 149 140 135 126 126 118 105 112 132 148 163 146 134 144 156 158 170 182